Time,TemperatureF,DewpointF,PressureIn,WindDirection,WindDirectionDegrees,WindSpeedMPH,WindSpeedGustMPH,Humidity,HourlyPrecipIn,Conditions,Clouds,dailyrainin,SolarRadiationWatts/m^2,SoftwareType,DateUTC
2013-02-25 00:01:00,35.0,34.0,-100.00,West,274,0.0,2.0,93,-99.99,,,0.00,0.000000,,2013-02-25 08:01:00,
2013-02-25 00:11:00,35.0,34.0,-100.00,West,274,0.0,2.0,93,-99.99,,,0.00,0.000000,,2013-02-25 08:11:00,
2013-02-25 00:41:00,35.0,34.0,-100.00,SW,222,1.0,3.0,93,-99.99,,,0.00,0.000000,,2013-02-25 08:41:00,
2013-02-25 00:52:00,35.0,34.0,-100.00,SW,222,1.0,3.0,93,-99.99,,,0.00,0.000000,,2013-02-25 08:52:00,
2013-02-25 01:01:00,35.0,34.0,-100.00,SW,222,1.0,3.0,93,-99.99,,,0.00,0.000000,,2013-02-25 09:01:00,
2013-02-25 01:12:00,35.0,34.0,-100.00,SW,222,1.0,3.0,93,-99.99,,,0.00,0.000000,,2013-02-25 09:12:00,
2013-02-25 01:41:00,35.0,34.0,-100.00,NNW,337,1.0,3.0,96,-99.99,,,0.00,0.000000,,2013-02-25 09:41:00,
2013-02-25 01:52:00,35.0,34.0,-100.00,NNW,337,1.0,3.0,96,-99.99,,,0.00,0.000000,,2013-02-25 09:52:00,
2013-02-25 02:01:00,35.0,34.0,-100.00,NNW,337,1.0,3.0,96,-99.99,,,0.00,0.000000,,2013-02-25 10:01:00,
2013-02-25 02:11:00,35.0,34.0,-100.00,NNW,337,1.0,3.0,96,-99.99,,,0.00,0.000000,,2013-02-25 10:11:00,
2013-02-25 02:41:00,36.0,35.0,-100.00,NNW,336,2.0,6.0,97,-99.99,,,0.01,0.000000,,2013-02-25 10:41:00,
2013-02-25 02:52:00,36.0,35.0,-100.00,NNW,336,2.0,6.0,97,-99.99,,,0.01,0.000000,,2013-02-25 10:52:00,
2013-02-25 03:01:00,36.0,35.0,-100.00,NNW,336,2.0,6.0,97,-99.99,,,0.01,0.000000,,2013-02-25 11:01:00,
2013-02-25 03:11:00,36.0,35.0,-100.00,NNW,336,2.0,6.0,97,-99.99,,,0.01,0.000000,,2013-02-25 11:11:00,
2013-02-25 03:42:00,36.0,35.0,-100.00,WNW,290,1.0,3.0,98,-99.99,,,0.01,0.000000,,2013-02-25 11:42:00,
2013-02-25 03:52:00,36.0,35.0,-100.00,WNW,290,1.0,3.0,98,-99.99,,,0.01,0.000000,,2013-02-25 11:52:00,
2013-02-25 04:01:00,36.0,35.0,-100.00,WNW,290,1.0,3.0,98,-99.99,,,0.01,0.000000,,2013-02-25 12:01:00,
2013-02-25 04:11:00,36.0,35.0,-100.00,WNW,290,1.0,3.0,98,-99.99,,,0.01,0.000000,,2013-02-25 12:11:00,
2013-02-25 04:42:00,36.0,35.0,-100.00,NNE,22,1.0,3.0,98,-99.99,,,0.01,0.000000,,2013-02-25 12:42:00,
2013-02-25 04:55:00,36.0,35.0,-100.00,NNE,22,1.0,3.0,98,-99.99,,,0.01,0.000000,,2013-02-25 12:55:00,
2013-02-25 05:02:00,36.0,35.0,-100.00,NNE,22,1.0,3.0,98,-99.99,,,0.01,0.000000,,2013-02-25 13:02:00,
2013-02-25 05:12:00,36.0,35.0,-100.00,NNE,22,1.0,3.0,98,-99.99,,,0.01,0.000000,,2013-02-25 13:12:00,
2013-02-25 05:42:00,36.0,36.0,-100.00,NNE,22,3.0,6.0,99,-99.99,,,0.01,0.000000,,2013-02-25 13:42:00,
2013-02-25 05:52:00,36.0,36.0,-100.00,NNE,22,3.0,6.0,99,-99.99,,,0.01,0.000000,,2013-02-25 13:52:00,
2013-02-25 06:02:00,36.0,36.0,-100.00,NNE,22,3.0,6.0,99,-99.99,,,0.01,0.000000,,2013-02-25 14:02:00,
2013-02-25 06:14:00,36.0,36.0,-100.00,NNE,22,3.0,6.0,99,-99.99,,,0.01,0.000000,,2013-02-25 14:14:00,
2013-02-25 06:42:00,37.0,37.0,-100.00,South,176,5.0,9.0,98,-99.99,,,0.02,0.000000,,2013-02-25 14:42:00,
2013-02-25 06:52:00,37.0,37.0,-100.00,South,176,5.0,9.0,98,-99.99,,,0.02,0.000000,,2013-02-25 14:52:00,
2013-02-25 07:02:00,37.0,37.0,-100.00,South,176,5.0,9.0,98,-99.99,,,0.02,0.000000,,2013-02-25 15:02:00,
2013-02-25 07:11:00,37.0,37.0,-100.00,South,176,5.0,9.0,98,-99.99,,,0.02,0.000000,,2013-02-25 15:11:00,
2013-02-25 07:41:00,38.0,36.0,-100.00,South,176,6.0,14.0,92,-99.99,,,-99.99,10.580000,,2013-02-25 15:41:00,
2013-02-25 07:52:00,38.0,36.0,-100.00,South,176,6.0,14.0,92,-99.99,,,-99.99,10.580000,,2013-02-25 15:52:00,
2013-02-25 08:01:00,38.0,36.0,-100.00,South,176,6.0,14.0,92,-99.99,,,-99.99,10.580000,,2013-02-25 16:01:00,
2013-02-25 08:11:00,38.0,36.0,-100.00,South,176,6.0,14.0,92,-99.99,,,-99.99,10.580000,,2013-02-25 16:11:00,
2013-02-25 08:42:00,37.0,35.0,-100.00,South,178,5.0,12.0,92,-99.99,,,0.02,29.520000,,2013-02-25 16:42:00,
2013-02-25 08:52:00,37.0,35.0,-100.00,South,178,5.0,12.0,92,-99.99,,,0.02,29.520000,,2013-02-25 16:52:00,
2013-02-25 09:01:00,37.0,35.0,-100.00,South,178,5.0,12.0,92,-99.99,,,0.02,29.520000,,2013-02-25 17:01:00,
2013-02-25 09:11:00,37.0,35.0,-100.00,South,178,5.0,12.0,92,-99.99,,,0.02,29.520000,,2013-02-25 17:11:00,
2013-02-25 09:41:00,37.0,36.0,-100.00,SSE,164,5.0,14.0,94,-99.99,,,0.02,101.230003,,2013-02-25 17:41:00,
2013-02-25 09:52:00,37.0,36.0,-100.00,SSE,164,5.0,14.0,94,-99.99,,,0.02,101.230003,,2013-02-25 17:52:00,
2013-02-25 10:01:00,37.0,36.0,-100.00,SSE,164,5.0,14.0,94,-99.99,,,0.02,101.230003,,2013-02-25 18:01:00,
2013-02-25 10:12:00,37.0,36.0,-100.00,SSE,164,5.0,14.0,94,-99.99,,,0.02,101.230003,,2013-02-25 18:12:00,
2013-02-25 10:41:00,39.0,37.0,-100.00,South,188,4.0,9.0,91,-99.99,,,0.03,217.220001,,2013-02-25 18:41:00,
2013-02-25 10:52:00,39.0,37.0,-100.00,South,188,4.0,9.0,91,-99.99,,,0.03,217.220001,,2013-02-25 18:52:00,
2013-02-25 11:01:00,39.0,37.0,-100.00,South,188,4.0,9.0,91,-99.99,,,0.03,217.220001,,2013-02-25 19:01:00,
2013-02-25 11:11:00,39.0,37.0,-100.00,South,188,4.0,9.0,91,-99.99,,,0.03,217.220001,,2013-02-25 19:11:00,
2013-02-25 11:41:00,41.0,36.0,-100.00,SSW,212,6.0,14.0,83,-99.99,,,0.03,380.739990,,2013-02-25 19:41:00,
2013-02-25 11:52:00,41.0,36.0,-100.00,SSW,212,6.0,14.0,83,-99.99,,,0.03,380.739990,,2013-02-25 19:52:00,
2013-02-25 12:01:00,41.0,36.0,-100.00,SSW,212,6.0,14.0,83,-99.99,,,0.03,380.739990,,2013-02-25 20:01:00,
2013-02-25 12:11:00,41.0,36.0,-100.00,SSW,212,6.0,14.0,83,-99.99,,,0.03,380.739990,,2013-02-25 20:11:00,
2013-02-25 12:41:00,43.0,35.0,-100.00,SSW,210,7.0,23.0,70,-99.99,,,0.03,631.890015,,2013-02-25 20:41:00,
2013-02-25 12:52:00,43.0,35.0,-100.00,SSW,210,7.0,23.0,70,-99.99,,,0.03,631.890015,,2013-02-25 20:52:00,
2013-02-25 13:01:00,43.0,35.0,-100.00,SSW,210,7.0,23.0,70,-99.99,,,0.03,631.890015,,2013-02-25 21:01:00,
2013-02-25 13:11:00,43.0,35.0,-100.00,SSW,210,7.0,23.0,70,-99.99,,,0.03,631.890015,,2013-02-25 21:11:00,
2013-02-25 13:42:00,44.0,36.0,-100.00,SW,226,4.0,12.0,74,-99.99,,,0.03,509.970001,,2013-02-25 21:42:00,
2013-02-25 13:52:00,44.0,36.0,-100.00,SW,226,4.0,12.0,74,-99.99,,,0.03,509.970001,,2013-02-25 21:52:00,
2013-02-25 14:01:00,44.0,36.0,-100.00,SW,226,4.0,12.0,74,-99.99,,,0.03,509.970001,,2013-02-25 22:01:00,
2013-02-25 14:11:00,44.0,36.0,-100.00,SW,226,4.0,12.0,74,-99.99,,,0.03,509.970001,,2013-02-25 22:11:00,
2013-02-25 14:42:00,41.0,38.0,-100.00,SSW,197,4.0,11.0,88,-99.99,,,0.03,368.299988,,2013-02-25 22:42:00,
2013-02-25 14:52:00,41.0,38.0,-100.00,SSW,197,4.0,11.0,88,-99.99,,,0.03,368.299988,,2013-02-25 22:52:00,
2013-02-25 15:01:00,41.0,38.0,-100.00,SSW,197,4.0,11.0,88,-99.99,,,0.03,368.299988,,2013-02-25 23:01:00,
2013-02-25 15:11:00,41.0,38.0,-100.00,SSW,197,4.0,11.0,88,-99.99,,,0.03,368.299988,,2013-02-25 23:11:00,
2013-02-25 16:11:00,38.0,35.0,-100.00,SSE,160,3.0,7.0,89,-99.99,,,0.03,28.010000,,2013-02-26 00:11:00,
2013-02-25 16:41:00,39.0,36.0,-100.00,SSE,168,4.0,9.0,91,-99.99,,,0.03,81.820000,,2013-02-26 00:41:00,
2013-02-25 16:52:00,39.0,36.0,-100.00,SSE,168,4.0,9.0,91,-99.99,,,0.03,81.820000,,2013-02-26 00:52:00,
2013-02-25 17:01:00,39.0,36.0,-100.00,SSE,168,4.0,9.0,91,-99.99,,,0.03,81.820000,,2013-02-26 01:01:00,
2013-02-25 17:11:00,39.0,36.0,-100.00,SSE,168,4.0,9.0,91,-99.99,,,0.03,81.820000,,2013-02-26 01:11:00,
2013-02-25 17:41:00,37.0,32.0,-100.00,SSW,203,5.0,14.0,81,-99.99,,,0.03,18.709999,,2013-02-26 01:41:00,
2013-02-25 17:52:00,37.0,32.0,-100.00,SSW,203,5.0,14.0,81,-99.99,,,0.03,18.709999,,2013-02-26 01:52:00,
2013-02-25 18:01:00,37.0,32.0,-100.00,SSW,203,5.0,14.0,81,-99.99,,,0.03,18.709999,,2013-02-26 02:01:00,
2013-02-25 18:11:00,37.0,32.0,-100.00,SSW,203,5.0,14.0,81,-99.99,,,0.03,18.709999,,2013-02-26 02:11:00,
2013-02-25 18:41:00,36.0,33.0,-100.00,South,183,3.0,9.0,87,-99.99,,,0.03,0.120000,,2013-02-26 02:41:00,
2013-02-25 18:52:00,36.0,33.0,-100.00,South,183,3.0,9.0,87,-99.99,,,0.03,0.120000,,2013-02-26 02:52:00,
2013-02-25 19:01:00,36.0,33.0,-100.00,South,183,3.0,9.0,87,-99.99,,,0.03,0.120000,,2013-02-26 03:01:00,
2013-02-25 19:11:00,36.0,33.0,-100.00,South,183,3.0,9.0,87,-99.99,,,0.03,0.120000,,2013-02-26 03:11:00,
2013-02-25 19:41:00,37.0,32.0,-100.00,SW,217,3.0,9.0,80,-99.99,,,0.03,0.000000,,2013-02-26 03:41:00,
2013-02-25 19:52:00,37.0,32.0,-100.00,SW,217,3.0,9.0,80,-99.99,,,0.03,0.000000,,2013-02-26 03:52:00,
2013-02-25 20:01:00,37.0,32.0,-100.00,SW,217,3.0,9.0,80,-99.99,,,0.03,0.000000,,2013-02-26 04:01:00,
2013-02-25 20:11:00,37.0,32.0,-100.00,SW,217,3.0,9.0,80,-99.99,,,0.03,0.000000,,2013-02-26 04:11:00,
2013-02-25 20:42:00,36.0,32.0,-100.00,South,183,4.0,9.0,83,-99.99,,,0.03,0.000000,,2013-02-26 04:42:00,
2013-02-25 20:52:00,36.0,32.0,-100.00,South,183,4.0,9.0,83,-99.99,,,0.03,0.000000,,2013-02-26 04:52:00,
2013-02-25 21:01:00,36.0,32.0,-100.00,South,183,4.0,9.0,83,-99.99,,,0.03,0.000000,,2013-02-26 05:01:00,
2013-02-25 21:11:00,36.0,32.0,-100.00,South,183,4.0,9.0,83,-99.99,,,0.03,0.000000,,2013-02-26 05:11:00,
2013-02-25 21:42:00,35.0,33.0,-100.00,SSE,167,4.0,9.0,90,-99.99,,,0.03,0.000000,,2013-02-26 05:42:00,
2013-02-25 21:52:00,35.0,33.0,-100.00,SSE,167,4.0,9.0,90,-99.99,,,0.03,0.000000,,2013-02-26 05:52:00,
2013-02-25 22:01:00,35.0,33.0,-100.00,SSE,167,4.0,9.0,90,-99.99,,,0.03,0.000000,,2013-02-26 06:01:00,
2013-02-25 22:11:00,35.0,33.0,-100.00,SSE,167,4.0,9.0,90,-99.99,,,0.03,0.000000,,2013-02-26 06:11:00,
2013-02-25 22:31:00,36.0,32.0,-100.00,NW,310,2.0,10.0,86,-99.99,,,0.03,0.000000,,2013-02-26 06:31:00,
2013-02-25 22:41:00,36.0,32.0,-100.00,NW,310,2.0,10.0,86,-99.99,,,0.03,0.000000,,2013-02-26 06:41:00,
2013-02-25 22:52:00,36.0,32.0,-100.00,NW,310,2.0,10.0,86,-99.99,,,0.03,0.000000,,2013-02-26 06:52:00,
2013-02-25 23:01:00,36.0,32.0,-100.00,NW,310,2.0,10.0,86,-99.99,,,0.03,0.000000,,2013-02-26 07:01:00,
2013-02-25 23:11:00,36.0,32.0,-100.00,NW,310,2.0,10.0,86,-99.99,,,0.03,0.000000,,2013-02-26 07:11:00,
2013-02-25 23:41:00,37.0,29.0,-100.00,ENE,58,1.0,4.0,73,-99.99,,,0.03,0.000000,,2013-02-26 07:41:00,
2013-02-25 23:52:00,37.0,29.0,-100.00,ENE,58,1.0,4.0,73,-99.99,,,0.03,0.000000,,2013-02-26 07:52:00,